Time,TemperatureF,DewpointF,PressureIn,WindDirection,WindDirectionDegrees,WindSpeedMPH,WindSpeedGustMPH,Humidity,HourlyPrecipIn,Conditions,Clouds,dailyrainin,SoftwareType,DateUTC
2013-09-09 00:10:00,53.0,-99.9,-100.00,WNW,296,11.0,13.0,-999,-99.99,,,-99.99,,2013-09-09 04:10:00,
2013-09-09 01:53:00,53.0,-99.9,29.99,WNW,286,11.0,13.0,-999,-99.99,,,-99.99,,2013-09-09 05:53:00,
2013-09-09 02:00:00,53.0,-99.9,30.00,WNW,294,15.0,17.0,-999,-99.99,,,-99.99,,2013-09-09 06:00:00,
2013-09-09 02:52:00,53.0,-99.9,30.00,WNW,294,15.0,17.0,-999,-99.99,,,-99.99,,2013-09-09 06:52:00,
2013-09-09 03:00:00,52.0,-99.9,30.02,WNW,300,14.0,17.0,-999,-99.99,,,-99.99,,2013-09-09 07:00:00,
2013-09-09 03:53:00,52.0,-99.9,30.02,WNW,300,14.0,17.0,-999,-99.99,,,-99.99,,2013-09-09 07:53:00,
2013-09-09 04:00:00,52.0,-99.9,30.05,NW,312,9.0,12.0,-999,-99.99,,,-99.99,,2013-09-09 08:00:00,
2013-09-09 04:52:00,52.0,-99.9,30.05,NW,312,9.0,12.0,-999,-99.99,,,-99.99,,2013-09-09 08:52:00,
2013-09-09 05:00:00,51.0,-99.9,30.06,WSW,258,6.0,7.0,-999,-99.99,,,-99.99,,2013-09-09 09:00:00,
2013-09-09 05:54:00,51.0,-99.9,30.06,WSW,258,6.0,7.0,-999,-99.99,,,-99.99,,2013-09-09 09:54:00,
2013-09-09 06:53:00,50.0,-99.9,30.09,West,273,11.0,12.0,-999,-99.99,,,-99.99,,2013-09-09 10:53:00,
2013-09-09 07:52:00,51.0,-99.9,30.11,WNW,292,15.0,17.0,-999,-99.99,,,-99.99,,2013-09-09 11:52:00,
2013-09-09 08:52:00,53.0,-99.9,30.12,West,281,13.0,14.0,-999,-99.99,,,-99.99,,2013-09-09 12:52:00,
2013-09-09 09:52:00,57.0,-99.9,30.14,West,277,9.0,11.0,-999,-99.99,,,-99.99,,2013-09-09 13:52:00,
2013-09-09 10:52:00,55.0,-99.9,30.14,WSW,246,9.0,11.0,-999,-99.99,,,-99.99,,2013-09-09 14:52:00,
2013-09-09 11:30:00,57.0,-99.9,30.11,SW,216,14.0,16.0,-999,-99.99,,,-99.99,,2013-09-09 15:30:00,
2013-09-09 12:10:00,57.0,-99.9,30.10,SW,219,17.0,20.0,-999,-99.99,,,-99.99,,2013-09-09 16:10:00,
2013-09-09 12:13:00,57.0,-99.9,-100.00,SW,216,14.0,16.0,-999,-99.99,,,-99.99,,2013-09-09 16:13:00,
2013-09-09 12:25:00,57.0,-99.9,30.11,SW,216,14.0,16.0,-999,-99.99,,,-99.99,,2013-09-09 16:25:00,
2013-09-09 14:52:00,58.0,-99.9,30.08,SW,221,17.0,19.0,-999,-99.99,,,-99.99,,2013-09-09 18:52:00,
2013-09-09 15:00:00,58.0,-99.9,30.08,SW,223,16.0,20.0,-999,-99.99,,,-99.99,,2013-09-09 19:00:00,
2013-09-09 15:52:00,58.0,-99.9,30.08,SW,223,16.0,20.0,-999,-99.99,,,-99.99,,2013-09-09 19:52:00,
2013-09-09 16:00:00,58.0,-99.9,30.07,SW,220,17.0,21.0,-999,-99.99,,,-99.99,,2013-09-09 20:00:00,
2013-09-09 16:53:00,58.0,-99.9,30.07,SW,220,17.0,21.0,-999,-99.99,,,-99.99,,2013-09-09 20:53:00,
2013-09-09 17:30:00,58.0,-99.9,30.07,SW,221,16.0,19.0,-999,-99.99,,,-99.99,,2013-09-09 21:30:00,
2013-09-09 18:10:00,58.0,-99.9,30.06,SSW,210,15.0,19.0,-999,-99.99,,,-99.99,,2013-09-09 22:10:00,
2013-09-09 18:14:00,58.0,-99.9,30.07,SW,221,16.0,19.0,-999,-99.99,,,-99.99,,2013-09-09 22:14:00,
2013-09-09 18:24:00,58.0,-99.9,30.07,SW,221,16.0,19.0,-999,-99.99,,,-99.99,,2013-09-09 22:24:00,
2013-09-09 18:54:00,58.0,-99.9,30.06,SSW,210,15.0,19.0,-999,-99.99,,,-99.99,,2013-09-09 22:54:00,
2013-09-09 19:03:00,58.0,-99.9,30.06,SSW,210,15.0,19.0,-999,-99.99,,,-99.99,,2013-09-09 23:03:00,
2013-09-09 19:10:00,58.0,-99.9,30.06,SSW,210,16.0,18.0,-999,-99.99,,,-99.99,,2013-09-09 23:10:00,
2013-09-09 20:10:00,58.0,-99.9,30.06,SW,217,17.0,21.0,-999,-99.99,,,-99.99,,2013-09-10 00:10:00,
2013-09-09 21:53:00,58.0,-99.9,30.07,SSW,212,16.0,18.0,-999,-99.99,,,-99.99,,2013-09-10 01:53:00,
2013-09-09 22:00:00,59.0,-99.9,30.06,SW,216,16.0,19.0,-999,-99.99,,,-99.99,,2013-09-10 02:00:00,
2013-09-09 22:52:00,59.0,-99.9,30.06,SW,216,16.0,19.0,-999,-99.99,,,-99.99,,2013-09-10 02:52:00,
2013-09-09 23:55:00,59.0,-99.9,30.07,SW,229,17.0,22.0,-999,-99.99,,,-99.99,,2013-09-10 03:55:00,